Location: Gollag?dem
(16.8053°N, 80.8024°E)
Time: 17:54:07
(UTC+00:00)

Cosmos 1745 Rocket - Pass Details

Date: 13 August 2020
Orbit: 952 x 999 km, 83.0° (Epoch: 17 September)

Event Time Altitude Azimuth Distance (km) Brightness Sun altitude
Rises 22:36:35 0° 349° (NNW) 3,659 7.2 -24.2°
Reaches altitude 10° 22:39:08 10° 345° (NNW) 2,704 6.4 -23.6°
Maximum altitude 22:45:09 56° 268° (W) 1,124 4.0 -22.3°
Enters shadow 22:48:04 30° 204° (SSW) 1,636 4.8 -21.7°
